Terminal Aerodrome Forecast
Issued by NWS Boise, ID

Home | Current Version | Previous Version | Text Only | Print | Product List | Glossary On
Versions: 1 2 3 4 5 6 7 8 9 10 11 12 13 14 15 16 17 18 19 20 21 22 23 24 25 26 27 28 29 30 31 32 33 34 35 36 37 38 39 40 41 42 43 44 45 46 47 48 49 50
000
FTUS45 KBOI 291534 AAC
TAFBOI
TAF AMD
KBOI 291534Z 2916/3012 13006KT P6SM VCSH SCT025 OVC035
      TEMPO 2916/2919 3SM -SN BR OVC025
     FM292300 13008KT 4SM BR VCSH BKN020
     FM300200 30006KT 1/2SM FZFG VCSH OVC002=

USA.gov is the U.S. government's official web portal to all federal, state and local government web resources and services.